NOAA 16 DEB, 41661

Orbit data source: Space-Track

NOAA 16 DEB, 41661 is space debris in SSO originally from a launch on Thu, 21 Sep 2000 UTC launched from the Air Force Western Test Range (AFWTR). Debris objects in space refer to the collection of defunct objects orbiting the Earth. Examples of debris include non-operational satellites, rocket bodies, and fragments generated from explosions, collisions, or faulty payload assembly.

Loading next visibility...
Identifier
41661, 2000-055PA
Orbit
SSO
Country
Flag of USUS
Related business
Manufacturer
Unknown
Mission
Spacecraft
Bus & Motor
Unknown
Mass
Unknown
Launch date (UTC)
2000-09-21 (26 years ago)
Launch vehicle
Unknown
Launch site
Air Force Western Test Range (AFWTR)
Object type
Payload
Rocket body
Debris
Shape & HBR
Unknown shape, 0.1 m
Radar Cross Section
Medium (>0.1 m² and <1 m²)

Expand to show TLE details & history
Last TLE update: 2 days ago

TLE from 2 days ago
0 NOAA 16 DEB
1 41661U 00055PA  26171.35657647  .00003835  00000-0  11148-2 0  9994
2 41661  99.0357  12.4109 0017285 229.7309 130.2369 14.44828557528181
Epoch: 2026-06-20T08:33Z
TLE epoch observation values (Epoch: 2026-06-20T08:33:28.207Z)
Latitude
-0.00004°
Longitude
-24.52899°
Altitude
753.491 km
Speed
7.474 km/s
True Right ascension
00h 49m 38s
True Declination
0° 00' 00"
Sunlit
Object was in daylight at epoch
Visualization orbit readout
Latitude
Unknown
Longitude
Unknown
Altitude
Unknown
Speed
Unknown
Apparent Right ascension
Unknown
Apparent Declination
Unknown
Sunlit
N/A
Visualization observer readout
Local Sidereal Time
23:20:17
Azimuth
Unknown
Elevation
Unknown
Doppler factor
Unknown
Orbital elements
Apogee altitude
752.034 km
Perigee altitude
727.428 km
Semi-major axis
7,117.868 km
Eccentricity
0.00173
Inclination
99.0357°
RAAN
12.4109°
Arg. of periapsis
229.7309°
True anomaly
130.38789°
Mean anomaly
130.2369°
Eccentric anomaly
130.31242°
Mean motion
3.61425 °/min
Orbital period
99.61 mins
BSTAR
0.0011148
Loading maneuver chart data...
Computing Atmospheric mass density...
Loading historical data...
Loading historical data...
Loading historical data...
Loading historical data...
Loading historical data...
Loading historical data...
Loading historical data...

Documentation

Showing up to 5 results
|